User: anonymous   Login
Location: Cuzcurrita-R�o Tir�n
(42.5415°N, 2.9642°W)
Time: 10:36:13
(UTC+00:00)
Language:

H-2A R/B - Orbit

View from above orbital plane
View from above orbital plane
View from above satellite
View from above satellite

Ground track
Ground track

The orbit data is extracted from the following two-line orbital elements,

1 38341U 12025E   21100.77478469  .00000079  00000-0  16896-4 0  9995
2 38341  98.5263 281.6327 0055293 358.2304   1.8704 14.84201201481468
Epoch (UTC): 10 April 2021 18:35:41
Eccentricity: 0.0055293
inclination: 98.5263°
perigee height: 577 km
apogee height: 655 km
right ascension of ascending node: 281.6327°
argument of perigee: 358.2304°
revolutions per day: 14.84201201
mean anomaly at epoch: 1.8704°
orbit number at epoch: 48146

The dashed part of the orbit path shows where the satellite is in the earth's shadow,  

DLR